Hourly Data Report for March 08, 2012

BAGOTVILLE A
QUEBEC

48°20'00.000" N
71°00'00.000" W
159.10 m
7060400
71727
YBG

Download Data

Hourly Data (March 2012)
Hourly Data Report for March 8, 2012
TIME
LST
Temp Definition
°C
Dew Point Definition
°C
Rel Hum Definition
%
Precip. Amount Definition
mm

Wind Dir Definition
10's deg

Wind Spd Definition
km/h
Visibility Definition
km
Stn Press Definition
kPa
Hmdx Definition


Wind Chill Definition


Weather Definition


00:00 1.3 -2.0 79   9 17 24.1 98.76     Cloudy
01:00 1.2 -1.9 80   9 19 24.1 98.73     Cloudy
02:00 4.5 -0.8 68   21 17 24.1 98.62     Cloudy
03:00 12.0 3.3 55   23 33 24.1 98.47     Cloudy
04:00 11.5 3.1 56   23 33 24.1 98.36     Cloudy
05:00 10.8 2.9 58   23 44 24.1 98.29     Cloudy
06:00 10.2 2.4 58   24 33 40.2 98.30     Cloudy
07:00 9.3 3.3 66   22 33 16.1 98.30     Rain
08:00 8.2 4.5 77   22 28 24.1 98.24     Rain
09:00 8.2 5.0 80   22 24 40.2 98.14     Cloudy
10:00 10.0 4.8 70   22 26 40.2 98.10     Rain Showers
11:00 9.4 5.4 76   25 24 24.1 98.01     Rain Showers
12:00 9.0 5.4 78   22 33 12.9 97.80     Rain Showers
13:00 9.4 7.5 88   22 32 40.2 97.76     Cloudy
14:00 10.3 5.8 74   24 26 40.2 97.72     Cloudy
15:00 11.0 6.0 71   23 30 40.2 97.65     Rain Showers
16:00 10.8 6.2 73   22 32 40.2 97.55     Cloudy
17:00 10.2 5.5 73   23 22 40.2 97.47     Cloudy
18:00 10.2 6.3 77   23 26 24.1 97.41     Rain Showers
19:00 9.0 6.1 82   25 26 16.1 97.39     Rain Showers
20:00 2.1 1.2 94   30 33 2.4 97.69     Rain Showers,Snow Showers
21:00 0.7 0.0 95   29 32 1.2 97.84     Snow Showers
22:00 0.4 -0.6 93   28 24 1.2 97.92     Snow Showers
23:00 -0.9 -1.8 94   31 32 1.2 97.96   -8 Snow Showers

Notes on Data Quality.

Legend

  • E = Estimated
  • M = Missing
  • NA = Not Available*
  • [empty] = Indicates an unobserved value
Date modified: